User: anonymous
Location: Caltech
(34.1382°N, 118.1253°W)
Time: 16:37:39
(UTC-07:00)
Language:

Cosmos 1758 Rocket - Orbit

View from above orbital plane
View from above orbital plane
View from above satellite
View from above satellite

Ground track
Ground track

The orbit data is extracted from the following two-line orbital elements,

1 16792U 86046B   14107.87073779  .00000676  00000-0  80700-4 0  4409
2 16792 082.4853 210.0509 0025905 137.5045 002.1746 14.82521546503512
Epoch (UTC): 17 April 2014 20:53:51
Eccentricity: 0.0025905
inclination: 82.4853°
perigee height: 603 km
apogee height: 639 km
right ascension of ascending node: 210.0509°
argument of perigee: 137.5045°
revolutions per day: 14.82521546
mean anomaly at epoch: 2.1746°
orbit number at epoch: 50351

The dashed part of the orbit path shows where the satellite is in the earth's shadow,  

DLR